TimeEDT,TemperatureF,Dew PointF,Humidity,Sea Level PressureIn,VisibilityMPH,Wind Direction,Wind SpeedMPH,Gust SpeedMPH,PrecipitationIn,Events,Conditions,WindDirDegrees,DateUTC
12:53 AM,55.0,50.0,83,30.22,10.0,East,4.6,-,N/A,,Clear,90,2013-09-06 04:53:00
1:53 AM,55.0,48.9,80,30.24,10.0,East,4.6,-,N/A,,Clear,100,2013-09-06 05:53:00
2:53 AM,54.0,48.0,80,30.24,10.0,East,6.9,-,N/A,,Clear,90,2013-09-06 06:53:00
3:53 AM,54.0,48.0,80,30.24,10.0,East,5.8,-,N/A,,Clear,90,2013-09-06 07:53:00
4:53 AM,53.1,48.0,83,30.25,10.0,East,5.8,-,N/A,,Clear,90,2013-09-06 08:53:00
5:53 AM,50.0,46.9,89,30.25,10.0,Calm,Calm,-,N/A,,Clear,0,2013-09-06 09:53:00
6:53 AM,50.0,46.0,86,30.25,10.0,Calm,Calm,-,N/A,,Clear,0,2013-09-06 10:53:00
7:53 AM,48.9,46.9,93,30.27,10.0,Calm,Calm,-,N/A,,Clear,0,2013-09-06 11:53:00
8:53 AM,55.9,52.0,87,30.26,10.0,Calm,Calm,-,N/A,,Clear,0,2013-09-06 12:53:00
9:53 AM,61.0,48.0,62,30.26,10.0,SE,5.8,-,N/A,,Clear,130,2013-09-06 13:53:00
10:53 AM,64.0,46.0,52,30.26,10.0,Calm,Calm,-,N/A,,Clear,0,2013-09-06 14:53:00
11:53 AM,68.0,46.0,45,30.24,10.0,ENE,4.6,-,N/A,,Clear,60,2013-09-06 15:53:00
12:53 PM,71.1,46.9,42,30.23,10.0,NE,4.6,-,N/A,,Clear,50,2013-09-06 16:53:00
1:53 PM,71.1,46.0,41,30.20,10.0,Variable,3.5,-,N/A,,Clear,0,2013-09-06 17:53:00
2:53 PM,73.0,43.0,34,30.18,10.0,Variable,3.5,-,N/A,,Clear,0,2013-09-06 18:53:00
3:53 PM,73.9,43.0,33,30.16,10.0,East,5.8,-,N/A,,Clear,80,2013-09-06 19:53:00
4:53 PM,75.0,44.1,33,30.14,10.0,ENE,6.9,-,N/A,,Clear,70,2013-09-06 20:53:00
5:53 PM,75.0,42.1,31,30.13,10.0,ENE,5.8,-,N/A,,Clear,70,2013-09-06 21:53:00
6:53 PM,72.0,45.0,38,30.13,10.0,East,5.8,-,N/A,,Clear,80,2013-09-06 22:53:00
7:53 PM,69.1,46.0,44,30.12,10.0,East,4.6,-,N/A,,Clear,80,2013-09-06 23:53:00
8:53 PM,64.0,48.0,56,30.12,10.0,East,5.8,-,N/A,,Clear,100,2013-09-07 00:53:00
9:53 PM,57.9,48.0,70,30.11,10.0,ESE,5.8,-,N/A,,Clear,120,2013-09-07 01:53:00
10:53 PM,59.0,46.9,64,30.10,10.0,SE,4.6,-,N/A,,Clear,130,2013-09-07 02:53:00
11:53 PM,57.0,46.9,69,30.09,10.0,SSE,3.5,-,N/A,,Clear,150,2013-09-07 03:53:00